| time (UTC) | temp F | wind direction | speed MPH | gust MPH | rain 1hr in | rain 24hr in | rain mn in | humidity % | barometer mb |
| 20260831113033 | 77 | 172 | 0.0 | 0.0 | 0.00 | 0.00 | 0.00 | 94 | 1013.3 |
| 20260831111532 | 78 | 173 | 0.0 | 0.0 | 0.00 | 0.00 | 0.00 | 93 | 1013.3 |
| 20260831110034 | 78 | 172 | 0.0 | 0.0 | 0.00 | 0.00 | 0.00 | 93 | 1013.2 |
| 20260831104533 | 78 | 173 | 0.0 | 0.0 | 0.00 | 0.00 | 0.00 | 94 | 1013.3 |
| 20260831103031 | 78 | 172 | 0.0 | 0.0 | 0.00 | 0.00 | 0.00 | 94 | 1013.5 |
| 20260831101531 | 78 | 172 | 0.0 | 0.0 | 0.00 | 0.00 | 0.00 | 94 | 1013.3 |
| 20260831100029 | 77 | 172 | 0.0 | 0.0 | 0.00 | 0.00 | 0.00 | 94 | 1013.5 |
| 20260831094529 | 77 | 173 | 0.0 | 0.0 | 0.00 | 0.00 | 0.00 | 95 | 1013.5 |
| 20260831093028 | 77 | 172 | 0.0 | 0.0 | 0.00 | 0.00 | 0.00 | 94 | 1013.3 |
| 20260831091527 | 77 | 172 | 0.0 | 0.0 | 0.00 | 0.00 | 0.00 | 94 | 1013.2 |
| 20260831090027 | 77 | 172 | 0.0 | 0.0 | 0.00 | 0.00 | 0.00 | 94 | 1013.2 |
| 20260831084526 | 77 | 172 | 0.0 | 0.0 | 0.00 | 0.00 | 0.00 | 94 | 1013.2 |
| 20260831083024 | 77 | 172 | 0.0 | 0.0 | 0.00 | 0.00 | 0.00 | 94 | 1013.4 |
| 20260831081523 | 77 | 172 | 0.0 | 0.0 | 0.00 | 0.00 | 0.00 | 94 | 1013.5 |
| 20260831080021 | 77 | 173 | 0.0 | 0.0 | 0.00 | 0.00 | 0.00 | 93 | 1013.6 |
| 20260831074620 | 77 | 172 | 0.0 | 0.0 | 0.00 | 0.00 | 0.00 | 93 | 1013.6 |
| 20260831073024 | 77 | 172 | 0.0 | 0.0 | 0.00 | 0.00 | 0.00 | 92 | 1013.5 |
| 20260831071515 | 78 | 173 | 0.0 | 0.0 | 0.00 | 0.00 | 0.00 | 92 | 1013.7 |
| 20260831070026 | 78 | 172 | 0.0 | 0.0 | 0.00 | 0.00 | 0.00 | 92 | 1013.7 |
| 20260831064513 | 78 | 172 | 0.0 | 0.0 | 0.00 | 0.00 | 0.00 | 91 | 1013.8 |
| 20260831063014 | 79 | 172 | 0.0 | 0.0 | 0.00 | 0.00 | 0.00 | 90 | 1014.0 |
| 20260831061508 | 79 | 173 | 0.0 | 0.0 | 0.00 | 0.00 | 0.00 | 89 | 1014.0 |
| 20260831060006 | 80 | 173 | 0.0 | 0.0 | 0.00 | 0.00 | 0.00 | 89 | 1014.0 |
| 20260831054513 | 80 | 172 | 0.0 | 0.0 | 0.00 | 0.00 | 0.00 | 88 | 1013.9 |
| 20260831053003 | 81 | 170 | 0.0 | 0.0 | 0.00 | 0.00 | 0.00 | 87 | 1013.8 |
| 20260831051504 | 81 | 170 | 0.0 | 1.0 | 0.00 | 0.00 | 0.00 | 87 | 1013.9 |
| 20260831050101 | 81 | 170 | 0.0 | 0.0 | 0.00 | 0.00 | 0.00 | 86 | 1013.8 |
| 20260831044600 | 81 | 170 | 0.0 | 0.0 | 0.00 | 0.00 | 0.00 | 86 | 1013.8 |
| 20260831043058 | 81 | 170 | 0.0 | 0.0 | 0.00 | 0.00 | 0.00 | 85 | 1013.6 |
| 20260831041602 | 81 | 170 | 0.0 | 1.0 | 0.00 | 0.00 | 0.00 | 85 | 1013.8 |
| 20260831040057 | 82 | 170 | 0.0 | 1.0 | 0.00 | 0.00 | 0.00 | 84 | 1013.6 |
| 20260831034558 | 82 | 192 | 0.0 | 2.0 | 0.00 | 0.00 | 0.00 | 84 | 1013.4 |
| 20260831033056 | 82 | 195 | 0.0 | 0.0 | 0.00 | 0.00 | 0.00 | 83 | 1013.4 |
| 20260831031555 | 82 | 195 | 0.0 | 1.0 | 0.00 | 0.00 | 0.00 | 83 | 1013.3 |
| 20260831030111 | 83 | 195 | 0.0 | 1.0 | 0.00 | 0.00 | 0.00 | 82 | 1013.2 |
| 20260831024633 | 83 | 203 | 0.0 | 3.0 | 0.00 | 0.00 | 0.00 | 82 | 1013.1 |
| 20260831023053 | 83 | 179 | 0.0 | 0.0 | 0.00 | 0.00 | 0.00 | 82 | 1012.8 |
| 20260831021554 | 84 | 179 | 0.0 | 2.0 | 0.00 | 0.00 | 0.00 | 81 | 1012.6 |
| 20260831020052 | 84 | 163 | 0.0 | 2.0 | 0.00 | 0.00 | 0.00 | 80 | 1012.4 |
| 20260831014551 | 85 | 167 | 0.0 | 2.0 | 0.00 | 0.00 | 0.00 | 80 | 1012.3 |
| 20260831013109 | 85 | 189 | 0.0 | 3.0 | 0.00 | 0.00 | 0.00 | 79 | 1012.4 |
| 20260831011551 | 85 | 198 | 0.0 | 3.0 | 0.00 | 0.00 | 0.00 | 78 | 1012.3 |
| 20260831010049 | 86 | 192 | 0.0 | 2.0 | 0.00 | 0.00 | 0.00 | 78 | 1012.3 |
| 20260831004550 | 87 | 215 | 0.0 | 4.0 | 0.00 | 0.00 | 0.00 | 77 | 1012.3 |
| 20260831003048 | 87 | 200 | 1.0 | 6.0 | 0.00 | 0.00 | 0.00 | 76 | 1012.2 |
| 20260831001548 | 88 | 204 | 1.0 | 5.0 | 0.00 | 0.00 | 0.00 | 75 | 1012.2 |
| 20260831000047 | 89 | 196 | 2.0 | 7.0 | 0.00 | 0.00 | 0.00 | 73 | 1012.4 |
| 20260830234547 | 90 | 196 | 2.0 | 6.0 | 0.00 | 0.00 | 0.00 | 70 | 1012.1 |
| 20260830233047 | 91 | 205 | 4.0 | 7.0 | 0.00 | 0.00 | 0.00 | 70 | 1012.1 |
| 20260830231545 | 93 | 173 | 4.0 | 10.0 | 0.00 | 0.00 | 0.00 | 68 | 1012.2 |
| 20260830230043 | 93 | 196 | 2.0 | 10.0 | 0.00 | 0.00 | 0.00 | 68 | 1012.2 |
| 20260830224544 | 94 | 208 | 2.0 | 7.0 | 0.00 | 0.00 | 0.00 | 65 | 1012.2 |
| 20260830223042 | 94 | 218 | 3.0 | 9.0 | 0.00 | 0.00 | 0.00 | 66 | 1012.2 |
| 20260830221546 | 95 | 182 | 3.0 | 8.0 | 0.00 | 0.00 | 0.00 | 64 | 1012.2 |
| 20260830220043 | 95 | 113 | 3.0 | 9.0 | 0.00 | 0.00 | 0.00 | 63 | 1012.1 |
| 20260830214540 | 96 | 227 | 2.0 | 9.0 | 0.00 | 0.00 | 0.00 | 63 | 1012.1 |
| 20260830213039 | 97 | 221 | 3.0 | 10.0 | 0.00 | 0.00 | 0.00 | 61 | 1012.1 |
| 20260830211537 | 98 | 197 | 2.0 | 8.0 | 0.00 | 0.00 | 0.00 | 59 | 1012.3 |
| 20260830210036 | 98 | 209 | 2.0 | 7.0 | 0.00 | 0.00 | 0.00 | 57 | 1012.3 |
| 20260830204540 | 98 | 208 | 2.0 | 8.0 | 0.00 | 0.00 | 0.00 | 58 | 1012.5 |
| 20260830203042 | 99 | 206 | 0.0 | 5.0 | 0.00 | 0.00 | 0.00 | 59 | 1012.7 |
| 20260830201542 | 98 | 184 | 0.0 | 3.0 | 0.00 | 0.00 | 0.00 | 63 | 1013.0 |
| 20260830200030 | 97 | 207 | 0.0 | 3.0 | 0.00 | 0.00 | 0.00 | 67 | 1013.1 |
| 20260830194528 | 99 | 139 | 0.0 | 2.0 | 0.00 | 0.00 | 0.00 | 60 | 1013.3 |
| 20260830193026 | 99 | 214 | 1.0 | 10.0 | 0.00 | 0.00 | 0.00 | 63 | 1013.5 |
| 20260830191525 | 97 | 187 | 0.0 | 5.0 | 0.00 | 0.00 | 0.00 | 63 | 1013.7 |
| 20260830190028 | 97 | 225 | 0.0 | 7.0 | 0.00 | 0.00 | 0.00 | 63 | 1014.0 |
| 20260830184516 | 98 | 181 | 0.0 | 7.0 | 0.00 | 0.00 | 0.00 | 63 | 1014.2 |
| 20260830183013 | 97 | 192 | 2.0 | 5.0 | 0.00 | 0.00 | 0.00 | 61 | 1014.4 |
| 20260830181511 | 97 | 259 | 0.0 | 1.0 | 0.00 | 0.00 | 0.00 | 63 | 1014.6 |
| 20260830180011 | 96 | 279 | 0.0 | 3.0 | 0.00 | 0.00 | 0.00 | 68 | 1015.0 |
| 20260830174508 | 96 | 111 | 0.0 | 4.0 | 0.00 | 0.00 | 0.00 | 70 | 1015.2 |
| 20260830173007 | 95 | 212 | 0.0 | 4.0 | 0.00 | 0.00 | 0.00 | 67 | 1015.4 |
| 20260830171504 | 94 | 266 | 0.0 | 3.0 | 0.00 | 0.00 | 0.00 | 69 | 1015.5 |
| 20260830170002 | 95 | 200 | 0.0 | 4.0 | 0.00 | 0.00 | 0.00 | 70 | 1015.5 |
| 20260830164619 | 93 | 251 | 0.0 | 3.0 | 0.00 | 0.00 | 0.00 | 73 | 1015.6 |
| 20260830163109 | 92 | 262 | 0.0 | 4.0 | 0.00 | 0.00 | 0.00 | 75 | 1015.6 |
| 20260830161556 | 92 | 161 | 0.0 | 4.0 | 0.00 | 0.00 | 0.00 | 75 | 1015.8 |
| 20260830160054 | 91 | 256 | 0.0 | 3.0 | 0.00 | 0.00 | 0.00 | 74 | 1015.7 |
| 20260830154553 | 90 | 122 | 1.0 | 4.0 | 0.00 | 0.00 | 0.00 | 75 | 1015.6 |
| 20260830153047 | 89 | 153 | 0.0 | 1.0 | 0.00 | 0.00 | 0.00 | 77 | 1015.7 |
| 20260830151547 | 89 | 153 | 0.0 | 2.0 | 0.00 | 0.00 | 0.00 | 77 | 1015.7 |
| 20260830150047 | 89 | 239 | 0.0 | 1.0 | 0.00 | 0.00 | 0.00 | 78 | 1015.7 |
| 20260830144554 | 87 | 226 | 0.0 | 2.0 | 0.00 | 0.00 | 0.00 | 80 | 1015.7 |
| 20260830143040 | 87 | 218 | 0.0 | 3.0 | 0.00 | 0.00 | 0.00 | 81 | 1015.8 |
| 20260830141537 | 86 | 215 | 0.0 | 2.0 | 0.00 | 0.00 | 0.00 | 83 | 1015.7 |
| 20260830140033 | 84 | 215 | 0.0 | 2.0 | 0.00 | 0.00 | 0.00 | 85 | 1015.6 |
| 20260830134531 | 83 | 209 | 0.0 | 1.0 | 0.00 | 0.00 | 0.00 | 87 | 1015.5 |
| 20260830133028 | 81 | 209 | 0.0 | 1.0 | 0.00 | 0.00 | 0.00 | 90 | 1015.3 |
| 20260830131521 | 79 | 209 | 0.0 | 2.0 | 0.00 | 0.00 | 0.00 | 93 | 1015.1 |
| 20260830130021 | 78 | 209 | 0.0 | 1.0 | 0.00 | 0.00 | 0.00 | 94 | 1015.2 |
| 20260830124520 | 78 | 209 | 0.0 | 0.0 | 0.00 | 0.00 | 0.00 | 95 | 1014.9 |
| 20260830123017 | 77 | 209 | 0.0 | 1.0 | 0.00 | 0.00 | 0.00 | 95 | 1014.7 |
| 20260830121516 | 76 | 209 | 0.0 | 0.0 | 0.00 | 0.00 | 0.00 | 95 | 1014.7 |
| 20260830120015 | 76 | 209 | 0.0 | 0.0 | 0.00 | 0.00 | 0.00 | 95 | 1014.7 |
| 20260830114518 | 76 | 209 | 0.0 | 0.0 | 0.00 | 0.00 | 0.00 | 96 | 1014.6 |